www.pogodaiklimat.ru

Погода и климат >> Архив погоды >> Аргентина >> Вилла Долорес


ПОГОДА в Вилла Долорес

  • Прогноз погоды в Вилла Долорес
  • Монитор погоды в Вилла Долорес

АРХИВ ПОГОДЫ в Вилла Долорес

Время (UTC), дата Ветер
(напр.,м/с)
 
Видим.   Явления Облачность Т
(С)
Тd
(С)
f
(%)
Тe
(С)
Тes
(С)
Комфортность P
(гПа)
Po
(гПа)
Тmin
(С)
Tmax
(С)
R
(мм)
R24
(мм)
S
(см)
18 18.05 ЮЗ 5 30 км 9/9 900 м
[Cu Sc]
+15.5 +2.6 42 +15 +15 1018.4 952.4
21 18.05 Ю 2 30 км 9/9 1200 м
[Sc]
+15.0 +4.9 51 +15 +15 1019.3 953.2
00 19.05 СВ 1 30 км 6/6 1200 м
[Sc]
+9.4 +5.4 76 +9 +9 1020.6 954.0 +9.4 +16.7
03 19.05 ЮВ 2 30 км 9/9 1200 м
[Sc]
+8.5 +5.3 80 +7 +7 1020.6 954.0
06 19.05 ЮВ 2 30 км 9/9 1200 м
[Sc]
+9.1 +5.0 75 +8 +8 1020.6 954.0
09 19.05 ЮВ 2 30 км 8/8 1500 м
[Sc]
+8.7 +6.6 87 +7 +7 1019.1 952.4
12 19.05 ЮВ 2 30 км 3/3 1200 м
[Sc Ci fib]
+9.6 +5.3 75 +8 +8 1020.5 953.3 +7.2 +9.8
15 19.05 З 1 30 км 6/6 900 м
[Sc]
+15.3 +2.0 41 +16 +19 1019.3 952.6
18 19.05 З 2 30 км 10/10 1200 м
[Sc]
+17.8 +6.0 46 +18 +18 1017.8 951.6
21 19.05 штиль 0 30 км 9/5 1200 м
[Sc Cs]
+16.5 +8.8 60 +16 +17 1016.5 950.1
00 20.05 С 2 30 км 4/0
[Cs]
+10.2 +8.0 86 +9 +9 1017.6 950.6 +9.6 +18.5
03 20.05 ЮВ 3 20 км дым 9/9 1500 м
[Sc]
+11.1 +7.9 81 +9 +9 1017.0 950.8
06 20.05 В 2 20 км дым 10/10 1200 м
[Sc]
+11.4 +7.8 79 +11 +11 1015.1 949.3
09 20.05 В 2 20 км дым 10/10 1200 м
[Sc]
+11.6 +8.7 82 +11 +11 1015.2 949.3
12 20.05 В 2 20 км дым 10/10 1200 м
[Sc]
+11.3 +9.0 86 +10 +10 1015.6 948.9 +9.0 +12.4
15 20.05 СЗ 2 20 км дым 10/5 1200 м
[Sc Ac As]
+13.7 +6.2 60 +14 +15 1016.0 949.7
18 20.05 В 2 20 км дым 9/5 900 м
[Cu Sc Ac As]
+16.7 +6.5 51 +17 +19 1014.2 948.4
21 20.05 Ю 2 20 км дым 9/5 900 м
[Cu Sc Ac As Cs]
+15.7 +9.1 65 +16 +16 1014.4 948.5
00 21.05 ЮЗ 2 20 км дым 10/6 900 м
[Sc Ac As]
+13.0 +9.6 80 +13 +13 1017.0 950.5 +11.1 +17.4
03 21.05 штиль 0 20 км дым 10/10 600 м
[Sc]
+9.8 +5.3 74 +9 +9 1020.0 953.2
06 21.05 штиль 0 20 км дым 10/10 600 м
[Sc]
+8.4 +4.5 76 +8 +8 1021.6 954.9
09 21.05 ЮВ 2 20 км дым 10/10 600 м
[Sc]
+7.8 +4.5 80 +6 +6 1022.5 955.6
12 21.05 штиль 0 20 км дым 4/4 600 м
[Sc]
+6.2 +3.9 85 +5 +6 1024.0 956.5 +5.8 +13.0
15 21.05 Ю 3 30 км 10/10 900 м
[Sc]
+9.4 +4.6 72 +7 +7 1025.1 957.6
18 21.05 СЗ 2 30 км 9/9 900 м
[Sc]
+11.2 +6.3 72 +10 +11 1023.7 956.4
21 21.05 З 5 30 км 10/0
[Cs]
+9.4 +5.6 77 +6 +6 1024.2 956.5
00 22.05 СВ 2 5000 м слаб. морось 10/10 240 м
[St]
+7.1 +6.0 93 +5 +5 1027.2 958.8 +6.2 +11.2 0.6
03 22.05 СЗ 2 5000 м дымка 10/10 240 м
[St]
+7.5 +7.1 97 +5 +5 1027.4 959.4
06 22.05 З 1 5000 м слаб. дождь туман 10/6 240 м
[St As op]
+7.4 +7.2 99 +6 +6 1026.7 959.0 2
09 22.05 ЮЗ 3 3000 м слаб. дождь 10/6 240 м
[St As op]
+7.1 +6.7 97 +4 +4 1026.9 958.9
12 22.05 штиль 0 2000 м слаб. дождь туман 10/8 240 м
[St As op]
+7.0 +6.8 99 +6 +6 1027.9 959.6 +5.6 +7.7 5
15 22.05 ЮЗ 1 4000 м дымка {дождь} 10/10 240 м
[St]
+8.4 +6.7 89 +8 +8 1028.4 960.2
18 22.05 З 2 20 км {дождь, морось} 10/10 240 м
[St]
+8.4 +6.7 89 +6 +6 1026.8 958.8 2
21 22.05 З 2 20 км 10/10 240 м
[St]
+8.3 +6.8 90 +7 +7 1026.9 958.8
00 23.05 СЗ 2 10 км слаб. морось 10/10 150 м
[St]
+7.8 +7.4 97 +6 +6 1027.5 959.2 +6.8 +9.1 0.0
03 23.05 штиль 0 20 км в посл. час морось туман 10/10 150 м
[St]
+7.8 +7.6 99 +7 +7 1027.1 959.0
06 23.05 штиль 0 20 км дым {морось} 10/10 450 м
[Sc]
+7.4 +7.0 97 +6 +6 1026.5 958.4
09 23.05 ЮЗ 2 20 км дым ясно +4.7 +4.0 95 +2 +2 1026.1 957.7
12 23.05 СВ 4 30 км дым ясно +4.3 +3.8 97 -0 0 1026.0 957.6 +3.1 +8.0 2
15 23.05 ЮЗ 2 30 км ясно +11.9 +5.2 64 +11 +19 1025.6 958.1
18 23.05 СЗ 2 30 км 1/1 900 м
[Cu hum]
+15.1 +3.5 46 +15 +21 1022.8 955.7
21 23.05 штиль 0 30 км ясно +15.2 +4.9 50 +15 +15 1021.5 954.2
00 24.05 В 3 20 км дым ясно +6.3 +4.7 89 +3 +3 1022.8 954.4 +4.3 +16.5
03 24.05 В 3 30 км ясно +5.4 +3.6 88 +2 +2 1022.0 954.4
06 24.05 В 3 30 км ясно +3.8 +1.8 87 0 0 1021.3 954.0
09 24.05 В 2 30 км ясно +4.3 +1.1 80 +2 +2 1019.5 952.4
12 24.05 В 3 20 км дым 3/0
[Cs]
+5.3 +1.1 74 +2 +2 1020.2 952.1 +2.4 +6.3
15 24.05 З 1 20 км дым 9/0
[Cs]
+13.5 +5.0 56 +14 +20 1019.8 952.5
18 24.05 СЗ 2 20 км дым 9/0
[Cs]
+17.4 +4.6 43 +18 +23 1017.7 950.8
21 24.05 ЮЗ 2 20 км дым 9/0
[Cs]
+15.5 +5.9 53 +16 +16 1016.2 949.3
00 25.05 СВ 2 20 км дым 9/0
[Cs]
+11.0 +4.1 62 +10 +10 1015.7 948.4 +5.3 +18.0
06 25.05 СВ 4 20 км дым 6/0
[Cs]
+9.8 +2.0 58 +8 +8 1014.0 948.1
09 25.05 СВ 2 30 км 8/0
[Cs]
+10.0 +3.3 63 +9 +9 1013.5 947.4
12 25.05 В 3 30 км 9/0
[Cs]
+10.4 +3.8 64 +9 +9 1013.4 946.9 +7.8 +11.7
15 25.05 СЗ 1 30 км 6/4 1200 м
[Sc diur, vesp Cs]
+17.9 +5.9 45 +19 +23 1012.4 946.5

 

Местоположение метеостанции Вилла Долорес (Аргентина): широта -31.95 долгота -65.13 высота над уровнем моря 569 м.

В архиве по умолчанию представлена погода в Вилла Долорес за последнюю неделю. Архивные данные за месяц целиком и за предыдущие месяцы, начиная с января 2011 года, Вы можете получить, выбрав интересующий диапазон дат из раскрывающегося списка и нажав кнопку "Ввод!".


*Определитесь, кто Вы:
робот инопланетянин человек

Внимание! Время в таблицах - всемирное. Для получения местного времени необходимо прибавить поправку, которая равна -3 ч.

Смотрите также архив погоды в соседних городах и на ближайших метеорологических станциях:

Погода в Кордове (Аргентина) (113 км)
Погода в Пиларе (Аргентина) (122 км)
Погода в Рио-Куарто (Аргентина) (150 км)
Погода в Сан-Луисе (Аргентина) (185 км)
Погода в Вилья Рейнольдс (Аргентина) (199 км)
Погода в Чамикале (Аргентина) (208 км)
Погода в Вилла де Мария дель Рио Секо (Аргентина) (267 км)
Погода в Маркос Хуарес (Аргентина) (292 км)
Погода в Лабоулайе (Аргентина) (293 км)
Погода в Сан-Хуане (Аргентина) (316 км)

Пояснения к столбцам:

Ветер - указаны скорость ветра в м/с - средняя за 10 мин, порывы в срок и между сроками (в фигурных скобках) и направление, откуда дует ветер: С - северный, СВ - северо-восточный, В - восточный, ЮВ - юго-восточный, Ю - южный, ЮЗ - юго-западный, З - западный, СЗ - северо-западный.
Видимость - горизонтальная дальность видимости в метрах или километрах. При видимости от 1 до 10 км при отсутствии осадков обычно наблюдается дымка, при ухудшении видимости до 1 км и менее - туман. В сухую погоду видимость может ухудшаться дымом, пылью или мглою.
Явления - указаны атмосферные явления, наблюдавшиеся в срок или в последний час перед сроком; фигурными скобками обозначены явления, наблюдавшиеся между сроками (за 1-3 часа до срока); квадратными скобками обозначены град или гололедные отложения с указанием их диаметра в мм.
Облачность - указаны через наклонную черту общая и нижняя облачность в баллах и высота нижней границы облаков в метрах; квадратными скобками обозначены формы облаков: Ci - перистые, Cs - перисто-слоистые, Cc - перисто-кучевые, Ac - высококучевые, As - высокослоистые, Sc - слоисто-кучевые, Ns - слоисто-дождевые, Cu - кучевые, Cb - кучево-дождевые. Подробнее классификацию облаков см. в Атласе облаков (PDF).
T - Температура воздуха - температура, измеренная на высоте 2 м над землей.
Td - Температура точки росы - температура, при понижении до которой содержащийся в воздухе водяной пар достигнет насыщения.
f - Относительная влажность воздуха - влажноcть воздуха, измеренная на высоте 2 м над землей.
Te - Эффективная температура - температура, которую ощущает одетый по сезону человек в тени. Характеристика душности погоды. При расчете учитывается влияние влажности воздуха и скорости ветра на теплоощущения человека.
Tes - Эффективная температура на солнце - температура, которую ощущает человек, с поправкой на солнечный нагрев. Характеристика знойности погоды. Зависит от высоты солнца над горизонтом, облачности и скорости ветра. Ночью, в пасмурную погоду, а также при ветре 12 м/с и более поправка равна нулю.
P - Атмосферное давление - приведенное к уровню моря атмосферное давление.
Po - Атмосферное давление - измеренное на уровне метеостанции атмосферное давление.
Tmin - Минимальная температура - минимум температуры воздуха на высоте 2 м над землей.
Tmax - Максимальная температура - максимум температуры воздуха на высоте 2 м над землей.
R - Количество осадков - Количество выпавших осадков за период времени, мм. При наведении курсора мыши на число - период времени, за который выпало указанное количество осадков.
R24 - Количество осадков - Количество выпавших осадков за 24 часа, мм.
S - Снежный покров - Высота снежного покрова, см. При наведении курсора мыши на число - состояние снежного покрова и степень покрытия местности в баллах.